アトラス彗星

C/2022 L2 ( ATLAS )

English version
Home page
Updated on July 18, 2024

---------------------------------------------------------------------

・ プロフィール

発見日 2022年6月10日
発見光度 18.4等
発見者 Asteroid Terrestrial-Impact Last Alert System (ATLAS) search program

・ 写真集

・ 軌道要素

Epoch 2024 Mar. 31.0 TT = JDT 2460400.5
T 2024 Mar. 12.27140 TT                                 Rudenko
q   2.6927020            (2000.0)            P               Q
z  -0.0005081      Peri.  199.92055     -0.86470498     -0.11292692
 +/-0.0000005      Node    39.24118     -0.28741035     +0.91035396
e   1.0013681      Incl.  129.31424     -0.41192304     -0.39812456
>From 2552 observations 2022 May 20-2024 Mar. 19, mean residual 0".6.

・ 星図

・ 光度変化

        m1 = 10.0 + 5 logΔ + 5.0 log r

---------------------------------------------------------------------

軌道要素はM.P.E.C. 2024-F34に掲載されたものです。
星図はステラナビゲータ Ver.10 (アストロアーツ) で作成したものです。
光度グラフはComet for Windowsで作成したものです。

---------------------------------------------------------------------

Copyright(C) Seiichi Yoshida (comet@aerith.net). All rights reserved.